Location: Airlie Beach - Cannonvale QLD, Australia
(20.2768°S, 148.7558°E)
Time: 23:28:17
(UTC+10:00)

Hubble Space Telescope - Pass Details

Date: 27 May 2026
Orbit: 473 x 475 km, 28.5° (Epoch: 5 June)

Event Time Altitude Azimuth Distance (km) Brightness Sun altitude
Rises 17:51:20 0° 243° (WSW) 2,517 4.9 -4.9°
Reaches altitude 10° 17:53:45 10° 231° (SW) 1,638 3.7 -5.4°
Maximum altitude 17:57:03 28° 170° (S) 914 1.7 -6.1°
Drops below altitude 10° 18:00:20 10° 109° (ESE) 1,635 2.5 -6.8°
Enters shadow 18:00:39 - 107° (ESE) 1,745 2.7 -6.9°
